Dewpoint
64 61 53 44 40 43 40 40 39 37 34 26 25 24 24 26 41 27 50 57 50 51 62 71 71 70 68 68 68 68 67 65 63 62 61 60 60 60 61 62 62 62 62 61 61 60 59 58 58
62 55 49 48 42 40 38 42 39 37 35 25 25 25 25 23 41 47 52 56 50 57 63 70 71 70 69 69 69 69 68 66 65 63 61 60 61 60 61 62 62 63 63 63 63 62 61 59 58
52 45 46 48 45 41 36 39 38 39 35 33 23 26 27 29 42 46 53 57 56 59 65 69 71 71 70 69 69 69 68 67 66 64 63 62 63 64 64 63 62 62 62 64 63 63 63 61 60
47 50 49 45 44 44 42 41 42 36 28 25 24 24 33 35 41 46 55 58 57 60 66 68 71 71 70 70 69 70 69 68 67 65 64 65 65 65 65 63 63 63 63 61 60 62 64 63 62
52 50 46 44 43 44 42 41 39 32 26 20 27 25 29 36 44 53 57 58 56 62 65 68 71 71 70 70 69 70 69 69 68 66 65 66 66 65 65 64 64 63 63 61 60 61 62 64 63
47 44 40 34 37 37 35 36 34 28 27 23 27 29 29 40 46 55 57 56 57 61 64 67 71 71 70 70 70 70 70 69 69 68 67 66 65 65 65 64 64 63 62 61 59 61 62 64 64
44 41 36 35 33 34 34 34 28 28 29 28 29 27 30 37 44 57 57 56 57 60 64 67 70 71 70 70 70 70 69 69 70 69 67 66 65 61 61 61 62 62 62 61 61 61 62 63 63
44 40 35 36 30 28 32 30 28 29 31 31 35 27 24 33 45 57 58 57 59 61 63 65 69 70 70 70 70 70 70 69 68 66 65 60 60 60 60 60 61 61 61 60 60 61 61 62 63
43 37 33 33 32 28 33 32 33 32 30 25 29 29 31 39 46 53 56 57 59 62 63 65 68 69 69 69 70 71 67 66 66 63 60 62 61 60 60 60 59 60 61 60 60 60 60 61 61
40 37 35 34 32 32 34 37 37 34 33 29 24 26 33 41 44 49 52 52 55 58 61 64 66 66 67 68 67 67 65 64 61 61 61 61 60 60 60 60 60 60 61 61 61 62 61 61 61
40 36 37 35 35 36 37 37 38 35 34 34 31 30 31 39 42 44 47 50 52 55 59 62 64 64 65 64 64 64 62 61 61 61 61 60 59 58 60 60 60 59 60 61 61 60 61 62 61
39 39 37 36 36 36 36 37 37 37 35 35 33 31 32 37 39 41 42 46 48 50 55 59 62 62 62 62 61 61 60 60 60 60 61 60 58 59 59 59 59 59 60 59 60 60 61 62 61
38 38 38 39 38 37 37 36 36 36 36 36 34 31 29 34 37 40 40 43 43 44 48 55 59 60 60 59 59 60 60 59 58 58 59 59 59 58 59 59 58 59 60 60 60 59 60 61 61
39 38 37 38 37 36 36 37 38 38 38 36 34 31 30 34 36 38 39 38 39 39 43 52 57 58 58 57 57 58 59 58 59 58 58 59 59 59 59 59 59 59 59 58 58 58 59 60 60
27 26 28 28 27 30 33 32 32 35 36 33 31 30 29 33 38 37 37 37 38 39 46 51 55 56 56 56 57 58 59 59 58 59 59 60 60 60 59 59 60 58 58 58 57 58 59 59 59
22 23 21 22 27 28 30 26 29 32 33 31 30 30 30 31 35 37 37 38 39 42 46 52 54 56 56 57 57 58 58 58 58 59 60 60 61 60 59 59 59 58 58 58 57 57 57 58 58
22 17 18 19 21 24 28 23 27 30 29 28 29 30 30 30 33 37 38 38 42 45 49 52 55 56 56 56 56 57 57 58 59 60 60 60 60 60 59 59 58 57 58 57 57 56 56 56 57
17 17 18 16 17 22 23 25 27 27 28 29 30 30 30 30 30 32 38 41 45 48 51 53 55 56 56 55 56 57 57 58 59 60 60 60 60 61 60 59 57 57 57 56 56 55 56 56 56
18 15 11 13 18 20 21 24 26 28 28 27 27 28 29 29 32 33 40 43 47 50 51 53 54 55 55 55 55 55 55 56 57 59 61 61 61 60 58 57 56 57 57 56 56 55 54 56 57
21 16 13 17 22 23 23 23 24 26 26 27 27 27 29 31 35 39 42 44 46 50 52 53 54 54 55 55 55 56 56 57 58 59 60 61 61 60 58 57 57 57 56 56 55 55 54 54 56
20 19 18 18 21 24 23 22 23 26 28 28 28 31 32 31 34 39 42 44 48 50 52 53 54 55 55 55 56 57 57 57 56 57 59 59 58 59 59 58 57 57 56 55 55 55 54 53 56
22 24 22 22 21 18 25 21 23 23 24 26 24 24 26 31 38 43 43 47 49 51 53 53 53 54 55 56 55 54 54 54 55 57 58 58 58 59 59 58 58 57 56 55 54 55 55 55 54
23 23 22 23 24 23 23 21 21 24 23 24 24 24 24 26 39 43 44 48 50 52 53 53 53 54 55 56 56 56 55 55 56 56 57 57 58 58 58 57 57 56 56 55 55 55 55 55 56
20 18 21 23 23 19 20 20 17 21 22 23 23 25 28 35 45 45 47 49 50 52 53 53 54 54 55 56 56 56 53 54 54 55 55 55 56 58 57 56 56 55 55 55 55 56 55 56 56
19 17 16 15 17 16 18 19 16 21 25 24 23 24 33 44 46 46 46 47 49 51 53 53 53 52 54 55 56 55 55 54 53 54 55 55 55 56 56 55 54 55 56 57 56 56 56 56 57
19 19 15 8 9 17 22 19 20 25 27 27 28 29 39 46 46 45 46 47 49 50 52 52 51 52 54 55 56 55 55 54 53 55 55 54 54 54 55 55 55 56 58 57 57 58 57 56 58
16 18 19 18 22 20 21 22 23 23 22 23 26 33 39 46 46 45 46 47 48 50 51 51 50 51 53 52 55 55 56 53 54 56 55 54 54 55 55 55 56 57 58 58 58 58 58 58 59
13 18 15 16 14 13 18 21 19 21 20 24 30 32 41 47 47 46 46 47 49 50 51 51 50 49 50 51 54 55 56 55 55 56 55 55 55 55 55 56 56 57 58 59 59 60 60 60 59
12 15 17 18 19 15 15 17 23 21 21 22 27 33 41 46 47 46 46 47 48 49 50 50 50 49 48 52 52 55 56 56 54 55 55 55 55 55 55 57 57 58 59 59 60 59 59 60 60
12 12 16 12 17 18 21 19 25 23 23 23 29 35 43 47 47 47 47 47 47 48 49 49 50 50 48 52 51 55 56 56 55 55 55 55 55 56 56 58 58 58 58 59 59 59 60 59 60
Wind_Speed
11 11 5 3 1 1 5 7 4 10 5 5 5 6 11 5 9 5 8 19 13 23 20 25 25 23 23 22 21 20 18 18 17 15 14 13 12 12 11 10 10 9 10 9 7 8 8 8 8
13 6 4 4 2 4 5 5 7 10 6 5 3 3 3 6 3 3 6 14 19 24 23 24 28 27 25 23 21 19 18 18 17 16 15 15 14 15 14 13 13 12 13 12 10 10 9 10 9
9 3 3 2 3 9 5 7 5 17 18 11 4 4 2 4 4 5 5 20 18 22 22 25 29 27 25 23 20 19 18 18 18 17 16 16 16 16 18 15 15 15 16 15 13 12 12 11 11
3 3 4 2 15 11 8 15 14 19 14 8 2 4 4 6 3 7 12 20 21 22 21 24 28 26 24 23 21 19 19 19 18 17 17 18 18 17 17 16 18 18 17 16 15 15 14 13 13
3 3 3 5 12 9 15 20 14 18 11 8 2 5 5 3 3 8 19 20 25 19 18 21 25 24 24 23 22 20 20 19 18 17 17 18 15 16 17 17 19 18 18 17 17 16 16 15 15
3 3 3 13 11 10 10 16 13 6 4 6 4 4 7 3 9 13 18 22 17 22 19 18 23 23 24 22 21 20 19 18 17 16 15 13 12 13 15 16 16 17 17 17 18 17 17 15 15
3 4 7 9 17 12 11 4 6 2 9 8 2 5 5 8 13 16 19 14 15 15 18 18 18 21 21 21 20 20 18 16 14 12 10 9 9 11 13 14 15 16 16 17 19 19 18 16 14
5 3 6 9 9 14 7 4 5 2 11 1 3 5 10 6 15 16 12 13 13 15 16 20 19 18 17 15 19 18 17 14 13 12 11 10 8 9 9 10 10 13 16 18 19 20 20 17 14
5 8 19 19 11 15 2 5 2 1 7 4 6 11 11 2 13 16 15 12 12 13 17 17 17 16 15 14 15 16 16 14 13 12 11 10 7 7 7 8 9 10 12 14 16 19 20 18 17
11 17 21 20 16 12 9 6 15 9 19 14 13 15 10 9 17 23 23 27 23 23 22 19 17 17 17 14 13 12 11 11 11 10 9 7 7 8 9 10 11 12 13 13 15 14 18 18 11
11 27 30 25 22 5 12 19 6 16 26 24 19 24 13 11 18 26 25 23 33 25 19 22 19 17 18 16 13 11 9 9 10 10 10 10 7 8 9 9 9 8 9 8 7 8 8 10 11
11 19 29 27 18 12 18 9 25 21 27 28 26 22 14 14 25 28 29 29 24 23 27 22 18 19 17 14 15 13 11 10 11 13 13 12 11 11 12 10 11 9 8 7 6 5 5 7 10
19 23 18 18 20 22 16 22 28 29 33 22 24 22 22 21 27 28 32 25 18 27 22 23 21 20 18 15 13 11 12 12 14 13 13 13 14 14 13 13 10 9 7 6 6 5 4 5 8
8 24 26 18 30 28 26 24 20 37 26 24 24 29 24 22 30 26 20 28 27 23 24 19 20 19 19 16 14 14 13 15 12 12 14 14 14 14 13 12 12 11 7 6 5 5 4 6 7
11 18 18 21 26 17 18 24 32 40 16 22 26 27 26 24 22 30 36 34 33 18 17 23 23 20 20 17 15 13 16 12 14 15 14 15 15 15 14 12 12 10 7 7 5 5 3 4 6
4 4 9 12 9 9 13 24 34 27 19 30 26 23 24 26 28 33 29 25 15 18 22 20 19 20 18 16 15 14 13 12 14 13 12 13 14 14 12 11 11 8 7 7 7 5 5 6 7
6 20 19 15 12 10 13 22 26 13 7 23 24 25 25 27 23 28 25 21 20 22 25 25 23 22 19 14 12 11 10 10 12 10 10 11 11 11 11 10 10 6 5 7 5 5 5 6 7
13 11 15 19 4 10 20 27 29 38 14 22 22 24 23 24 32 23 19 15 20 23 25 25 22 20 17 10 7 6 7 8 8 8 7 8 9 9 10 9 7 5 6 6 5 7 7 4 6
16 23 25 11 6 13 19 22 25 29 16 25 29 28 28 28 20 9 16 19 21 23 27 26 23 18 15 8 7 6 5 4 5 5 6 6 6 7 8 7 6 6 9 7 7 7 8 7 4
18 22 29 20 8 12 20 25 27 29 30 23 29 33 27 17 11 7 15 21 27 29 26 24 22 19 16 10 6 3 2 3 5 5 3 4 6 7 7 7 6 7 7 6 8 8 5 5 6
22 28 27 20 10 12 17 25 24 26 19 16 20 20 19 20 18 14 18 21 21 27 26 25 22 20 15 10 5 3 1 1 3 3 2 3 3 3 7 7 6 6 6 7 8 10 8 6 3
30 24 23 20 11 18 5 14 20 24 31 22 23 20 20 16 11 11 17 20 23 21 22 22 19 17 13 10 6 4 2 2 3 2 2 1 2 3 4 6 6 6 6 7 9 9 6 6 7
22 13 13 14 16 13 14 15 11 10 23 26 25 24 24 16 12 16 19 21 21 23 23 20 18 15 12 10 6 5 2 3 1 0 0 0 3 3 4 5 7 6 6 6 8 8 8 5 7
6 9 4 6 8 24 23 15 13 15 23 17 17 14 12 5 12 17 17 22 22 19 20 19 17 14 11 9 7 5 4 4 1 0 1 1 1 3 4 6 6 5 4 6 7 7 8 7 4
16 9 4 5 9 15 10 13 26 19 21 19 24 22 4 7 19 23 27 26 22 22 20 18 17 13 11 8 6 6 5 4 1 1 2 1 4 4 5 5 5 3 5 6 7 7 6 6 6
26 18 13 11 8 8 11 12 18 21 25 21 20 12 10 14 19 22 24 24 25 22 20 18 16 12 11 8 7 6 6 4 2 2 2 4 4 7 4 5 4 5 6 6 6 5 6 4 4
19 21 21 6 3 5 5 11 11 11 19 14 7 6 13 16 19 24 24 23 23 22 20 19 15 11 10 8 9 7 7 6 4 4 5 6 5 5 4 3 6 6 5 4 5 4 5 4 5
15 17 18 18 11 12 10 10 13 3 10 6 10 14 15 15 19 22 21 23 20 20 18 16 14 13 10 8 8 8 8 7 6 6 7 8 5 4 3 3 5 6 5 6 7 5 4 5 6
14 18 7 15 9 8 6 10 10 14 15 16 14 16 20 23 23 23 21 20 21 19 18 16 12 11 9 8 7 8 8 8 8 6 7 7 4 4 4 4 5 6 7 8 8 6 5 8 9
33 26 18 17 13 12 3 10 3 9 12 12 12 14 13 15 21 21 23 22 20 21 18 16 12 11 9 8 7 7 8 8 8 6 7 6 5 3 4 6 8 8 8 8 10 8 9 9 9
Wind_Direction
151 139 115 87 288 48 254 251 279 277 287 313 133 172 195 173 171 225 327 176 138 156 160 171 178 181 187 190 192 191 191 192 196 199 203 210 217 221 225 230 240 252 263 271 269 262 253 250 251
149 127 80 95 217 245 254 239 247 253 269 303 289 244 249 256 209 254 134 172 158 157 164 173 180 184 189 192 193 191 194 199 204 208 212 217 220 229 231 230 239 243 249 252 260 262 260 253 250
161 130 104 161 189 230 250 229 273 308 304 239 223 226 220 240 228 201 203 163 152 161 168 178 183 186 189 192 191 191 196 202 207 213 219 224 228 228 230 230 241 247 251 250 251 252 256 256 251
187 48 60 219 247 257 248 281 304 315 330 171 189 249 261 224 193 203 158 156 163 170 174 179 184 184 188 191 191 193 198 205 210 216 226 235 234 238 241 238 240 244 252 260 262 259 248 248 252
58 65 223 247 256 256 260 270 287 299 295 311 248 253 245 232 203 161 160 164 174 172 175 177 181 186 188 190 192 195 200 206 212 220 231 241 249 248 246 246 247 245 246 255 261 264 264 255 249
116 100 239 249 247 254 267 266 278 254 304 295 219 226 256 324 180 181 171 178 174 171 173 172 180 186 193 190 192 196 202 206 211 221 236 248 252 257 260 259 255 253 253 260 263 262 262 259 250
174 163 246 256 269 282 259 201 200 289 323 320 193 250 272 264 214 180 179 175 168 169 169 172 180 190 194 196 191 194 200 207 211 216 219 233 248 260 266 268 267 266 264 261 261 262 266 269 249
163 182 258 245 252 270 228 206 174 220 298 306 148 265 285 257 186 165 164 176 173 177 179 183 184 185 190 196 192 193 198 194 190 197 208 223 242 257 265 269 269 266 263 260 260 263 262 259 253
128 221 244 247 225 248 159 284 296 346 263 275 227 258 264 277 156 161 169 191 193 196 198 191 187 181 178 184 194 193 193 190 193 200 210 218 223 245 265 267 269 266 262 256 256 257 258 256 252
191 216 230 232 233 252 284 301 306 316 303 283 273 264 266 184 180 181 189 198 205 206 206 198 191 183 174 181 192 186 188 188 195 201 215 223 232 237 246 254 261 263 264 274 262 280 248 248 233
211 228 228 255 248 262 287 298 302 284 288 285 284 290 282 207 198 192 202 205 208 208 203 202 189 179 178 178 180 182 186 194 206 215 219 230 234 243 240 246 255 269 274 286 293 297 271 242 220
230 231 237 249 264 276 271 287 285 284 271 270 280 273 268 221 206 210 205 211 210 204 207 195 181 181 184 177 180 181 192 204 223 231 230 224 232 236 239 239 240 246 254 261 264 274 268 236 211
234 240 244 251 267 268 275 271 269 279 275 276 276 279 255 239 219 217 211 210 207 214 206 193 182 181 182 180 184 186 203 214 228 235 224 216 226 232 233 236 239 242 245 239 244 251 251 230 215
203 235 252 267 262 261 271 279 278 271 272 277 278 278 272 244 230 223 217 215 212 210 205 182 182 177 173 180 187 199 207 226 230 230 228 226 229 231 235 240 237 236 234 233 240 248 234 227 206
248 256 262 259 260 256 263 273 262 266 283 275 276 275 273 249 234 224 223 213 213 203 171 178 174 169 171 185 192 202 219 224 233 237 235 232 227 231 238 240 232 232 224 229 231 228 210 210 209
210 241 253 261 247 253 198 261 270 271 269 272 271 275 271 263 237 232 232 220 190 167 173 165 161 168 176 184 197 210 224 227 239 243 241 237 232 227 231 231 232 224 220 224 227 219 224 226 216
241 250 256 274 262 254 212 271 275 280 267 281 279 275 272 269 254 238 227 210 176 164 159 163 166 172 181 188 197 213 231 241 249 243 242 236 230 221 218 222 232 219 224 221 222 228 217 221 219
222 237 244 244 256 241 256 258 270 278 263 272 280 280 271 272 267 254 217 184 161 156 158 161 168 173 181 182 201 230 242 249 249 249 245 238 226 216 210 218 222 218 219 214 199 208 207 212 217
227 232 248 255 228 259 255 268 272 281 279 281 284 283 284 278 278 227 183 162 154 155 160 164 168 178 174 179 194 222 226 245 280 271 245 233 234 216 208 219 213 208 216 216 205 200 201 202 165
219 237 252 266 258 255 275 279 277 279 279 271 276 277 275 270 255 204 174 167 168 164 162 163 171 177 184 182 193 164 199 253 273 282 275 236 229 216 198 203 205 195 206 209 197 183 160 187 178
217 226 241 249 296 272 296 290 277 281 282 276 271 261 279 261 236 205 182 171 157 160 160 163 172 178 184 184 144 115 102 303 301 307 338 271 236 212 206 198 187 191 196 203 193 188 177 162 177
224 223 241 260 275 269 172 285 293 300 301 292 287 294 286 268 259 181 164 161 160 154 157 161 169 175 182 174 161 167 174 281 258 292 319 295 85 121 160 185 185 192 186 191 191 190 187 162 163
228 220 233 249 250 265 267 274 279 281 281 284 286 285 274 258 212 183 165 152 147 153 160 164 168 175 173 172 172 162 174 230 248 66 15 69 64 129 147 155 158 165 188 195 187 185 199 192 179
176 244 272 314 268 262 266 237 265 256 249 265 271 277 294 222 154 141 137 143 150 154 157 162 168 174 171 175 174 162 190 202 199 310 283 343 130 127 126 148 163 161 169 164 178 191 199 203 204
186 151 242 263 226 248 232 206 251 258 238 239 270 277 299 195 143 146 153 155 155 161 163 166 172 170 176 186 176 169 195 187 129 228 242 143 156 137 129 140 139 116 136 153 151 174 182 192 195
201 184 186 229 247 274 202 214 245 237 240 248 257 253 168 176 150 156 156 156 160 163 167 169 170 168 179 185 170 170 182 152 139 191 163 133 145 139 133 128 116 102 105 134 146 156 171 167 149
205 198 193 253 244 282 229 260 293 247 262 268 282 216 182 172 160 157 160 159 160 165 170 170 173 177 183 192 173 175 182 156 160 156 134 122 128 135 123 115 94 86 95 105 143 148 174 149 149
190 152 196 214 230 243 253 258 232 210 238 261 235 213 179 162 160 159 162 161 164 167 168 173 177 175 187 190 176 190 180 161 164 158 134 140 141 135 125 93 95 97 101 101 113 118 117 125 128
174 184 179 185 216 207 269 258 216 242 252 256 235 190 183 164 166 163 163 167 165 165 169 177 178 175 182 177 172 191 174 168 169 156 147 153 151 154 156 124 114 120 115 120 113 113 122 121 127
199 195 179 197 193 221 209 261 253 245 266 258 242 174 169 167 162 162 164 163 165 170 175 184 181 185 190 178 176 188 172 160 173 164 160 153 150 165 173 137 126 129 128 131 134 131 104 108 106